Location: Chemnitz
(49.5500°N, 11.5830°E)
Time: 14:50:02
(UTC+02:00)

ISS - Pass Details

Date: 22 March 2017
Orbit: 399 x 409 km, 51.6° (Epoch: 30 March)

Event Time Altitude Azimuth Distance (km) Brightness Sun altitude
Exits shadow 05:19:18 13° 244° (WSW) 1,308 -1.9 -9.3°
Maximum altitude 05:20:22 15° 222° (SW) 1,227 -1.9 -9.2°
Drops below altitude 10° 05:22:16 10° 187° (S) 1,470 -1.2 -8.9°
Sets 05:25:00 0° 162° (SSE) 2,327 0.1 -8.4°
